Location: Sungai Jaoh
(2.9167°N, 113.9167°E)
Time: 15:48:39
(UTC+00:00)

IUS R/B (1) - Pass Details

Date: 30 November 2020
Orbit: 331 x 34686 km, 28.1° (Epoch: 25 January)

Event Time Altitude Azimuth Distance (km) Brightness Sun altitude
Rises 21:36:56 0° 239° (WSW) 17,321 9.5 -9.5°
Reaches altitude 10° 22:02:46 10° 238° (WSW) 9,529 8.2 -3.5°
Maximum altitude 22:23:30 73° 156° (SSE) 1,170 4.2 1.3°
Drops below altitude 10° 22:27:13 10° 70° (ENE) 1,934 5.9 2.1°
Sets 22:28:29 0° 67° (ENE) 2,528 6.5 2.4°
